Location: Appleton
(44.2618°N, 88.4157°W)
Time: 19:34:11
(UTC+00:00)

Tiros 1 despin weight - Visible Passes

Search period start: 28 February 2021 00:00
Search period end: 10 March 2021 00:00
Orbit: 593 x 642 km, 48.2° (Epoch: 28 February)

Date Brightness Start Highest point End Pass type
(mag) Time Alt. Az. Time Alt. Az. Time Alt. Az.
28 Feb ? 09:24:20 26° ENE 09:24:20 26° ENE 09:26:34 10° ENE visible
28 Feb ? 11:01:23 27° WNW 11:03:56 73° NNE 11:08:37 10° ESE visible
01 Mar ? 09:40:00 37° ENE 09:40:00 37° ENE 09:43:08 10° E visible
01 Mar ? 11:17:02 19° WNW 11:20:20 81° SSW 11:25:02 10° ESE visible
02 Mar ? 09:55:42 56° NE 09:55:42 56° NE 09:59:43 10° E visible
02 Mar ? 11:32:45 14° WNW 11:36:38 51° SSW 11:41:10 10° SE visible
03 Mar ? 10:11:29 82° NNE 10:11:30 82° NNE 10:16:13 10° ESE visible
03 Mar ? 11:48:42 10° W 11:52:48 30° SW 11:56:53 10° SSE visible
04 Mar ? 08:50:19 13° E 08:50:19 13° E 08:50:47 10° E visible
04 Mar ? 10:27:22 62° WSW 10:27:53 68° SSW 10:32:32 10° SE visible
05 Mar ? 09:06:18 16° E 09:06:18 16° E 09:07:20 10° E visible
05 Mar ? 10:43:22 38° WSW 10:44:07 41° SW 10:48:31 10° SE visible
06 Mar ? 09:22:26 19° ESE 09:22:26 19° ESE 09:23:46 10° ESE visible
06 Mar ? 10:59:30 23° SW 11:00:14 24° SW 11:04:00 10° SSE visible
07 Mar ? 09:38:43 18° SE 09:38:43 18° SE 09:39:59 10° SE visible
07 Mar ? 11:15:49 13° SW 11:16:14 13° SW 11:18:26 10° SSW visible
08 Mar ? 09:55:10 13° SSE 09:55:10 13° SSE 09:55:47 10° SSE visible
